Terminal Aerodrome Forecast
Issued by NWS

Home | Current Version | Previous Version | Text Only | Print | Product List | Glossary On
Versions: 1 2 3 4 5 6 7 8 9 10 11 12 13 14 15 16 17 18 19 20 21 22 23 24 25 26 27 28 29 30 31 32
000
FTUS44 KOUN 201120
TAFWWR
TAF
KWWR 201120Z 2012/2112 20007KT 6SM BR BKN035
     FM201500 19012KT P6SM SCT040
     FM210000 16006KT P6SM FEW050 SCT250
     FM210700 36006KT P6SM FEW040 BKN200=

USA.gov is the U.S. government's official web portal to all federal, state and local government web resources and services.